Location: Lane
(33.5226°N, 79.8788°W)
Time: 02:42:23
(UTC+00:00)

Tiros 1 despin weight - Pass Details

Date: 05 October 2022
Orbit: 590 x 637 km, 48.2° (Epoch: 30 November)

Event Time Altitude Azimuth Distance (km) Brightness Sun altitude
Rises 22:12:48 0° 294° (WNW) 2,848 ? 8.6°
Reaches altitude 10° 22:16:13 10° 321° (NW) 1,957 ? 7.9°
Maximum altitude 22:18:28 13° 351° (N) 1,745 ? 7.4°
Drops below altitude 10° 22:20:43 10° 21° (NNE) 1,974 ? 7.0°
Sets 22:24:12 0° 48° (NE) 2,893 ? 6.3°
